Weather History for Orlando International, FL

Change the Weather History Date:

Wednesday, December 19, 2012

  Actual Average Record
Temperature  
Mean Temperature 65 °F 62 °F  
Max Temperature 79 °F 72 °F 88 °F (1922)
Min Temperature 50 °F 52 °F 30 °F (1981)
Degree Days  
Heating Degree Days 0 5  
Month to date heating degree days 4 75  
Since 1 July heating degree days 80 122  
Cooling Degree Days 0 2  
Month to date cooling degree days 94 47  
Year to date cooling degree days 3585 3401  
Growing Degree Days 14 (Base 50)    
Moisture  
Dew Point 49 °F    
Average Humidity 60    
Maximum Humidity 90    
Minimum Humidity 29    
Precipitation  
Precipitation 0.00 in 0.09 in 1.11 in (1965)
Month to date precipitation 0.73 1.59  
Year to date precipitation 40.54 49.74  
Sea Level Pressure  
Sea Level Pressure 30.08 in    
Wind  
Wind Speed 4 mph (ENE)    
Max Wind Speed 10 mph    
Max Gust Speed 15 mph    
Visibility 10 miles    
Events      
T = Trace of Precipitation, MM = Missing Value Source: NWS Daily Summary

Daily Weather History Graph

Daily Weather History Graph

Search for Another Location

Airport:

Trip Planner

Search our weather history database for the weather conditions in past years. The results will help you decide how hot, cold, wet, or windy it might be!

Date:

Astronomy

Dec. 19, 2012 Rise Set
Actual Time 7:12 AM EST 5:32 PM EST
Civil Twilight 6:46 AM EST 5:58 PM EST
Nautical Twilight 6:17 AM EST 6:28 PM EST
Astronomical Twilight 5:48 AM EST 6:56 PM EST
Moon 11:52 AM EST (12/19) No Moon Set
Length of Visible Light 11h 12m
Length of Day
10h 20m
Waxing Crescent, 45% of the Moon is Illuminated
Dec 19
Waxing Crescent
Dec 20
First Quarter
Dec 28
Full
Jan 4
Last Quarter
Jan 11
New

Hourly Weather History & Observations

Time (EST) Temp. Dew Point Humidity Pressure Visibility Wind Dir Wind Speed Gust Speed Precip Events Conditions
12:53 AM 52.0 °F 46.0 °F 80% 30.04 in 10.0 mi Calm Calm - N/A   Clear
1:53 AM 52.0 °F 46.9 °F 83% 30.05 in 10.0 mi Calm Calm - N/A   Clear
2:53 AM 51.1 °F 46.9 °F 86% 30.06 in 10.0 mi Calm Calm - N/A   Clear
3:53 AM 51.1 °F 48.9 °F 92% 30.06 in 10.0 mi North 4.6 mph - N/A   Clear
4:53 AM 51.1 °F 48.0 °F 89% 30.06 in 10.0 mi North 5.8 mph - N/A   Clear
5:53 AM 50.0 °F 46.0 °F 86% 30.08 in 10.0 mi North 4.6 mph - N/A   Clear
6:53 AM 50.0 °F 45.0 °F 83% 30.09 in 10.0 mi North 6.9 mph - N/A   Clear
7:53 AM 55.0 °F 48.0 °F 77% 30.11 in 10.0 mi Calm Calm - N/A   Clear
8:53 AM 62.1 °F 51.1 °F 67% 30.11 in 10.0 mi NNE 5.8 mph - N/A   Clear
9:53 AM 68.0 °F 50.0 °F 52% 30.13 in 10.0 mi NE 5.8 mph - N/A   Clear
10:53 AM 72.0 °F 50.0 °F 46% 30.13 in 10.0 mi ENE 5.8 mph - N/A   Clear
11:53 AM 73.9 °F 48.0 °F 40% 30.12 in 10.0 mi ENE 5.8 mph - N/A   Clear
12:53 PM 75.9 °F 41.0 °F 29% 30.09 in 10.0 mi East 4.6 mph - N/A   Partly Cloudy
1:53 PM 77.0 °F 46.9 °F 34% 30.07 in 10.0 mi ESE 8.1 mph - N/A   Clear
2:53 PM 78.1 °F 46.9 °F 33% 30.06 in 10.0 mi East 6.9 mph - N/A   Clear
3:53 PM 77.0 °F 46.0 °F 33% 30.06 in 10.0 mi East 3.5 mph - N/A   Clear
4:53 PM 75.0 °F 48.0 °F 38% 30.06 in 10.0 mi ESE 3.5 mph - N/A   Clear
5:53 PM 72.0 °F 51.1 °F 48% 30.08 in 10.0 mi Calm Calm - N/A   Clear
6:53 PM 66.9 °F 55.9 °F 68% 30.09 in 10.0 mi ENE 8.1 mph - N/A   Clear
7:53 PM 63.0 °F 55.9 °F 78% 30.10 in 10.0 mi East 5.8 mph - N/A   Clear
8:53 PM 63.0 °F 55.9 °F 78% 30.09 in 10.0 mi ENE 4.6 mph - N/A   Clear
9:53 PM 60.1 °F 55.9 °F 86% 30.09 in 10.0 mi Calm Calm - N/A   Clear
10:53 PM 61.0 °F 57.0 °F 87% 30.10 in 10.0 mi ENE 4.6 mph - N/A   Clear
11:53 PM 57.9 °F 55.9 °F 93% 30.10 in 10.0 mi Calm Calm - N/A   Clear